| time (UTC) | temp C | wind direction | speed KPH | gust KPH | rain 1hr cm | rain 24hr cm | rain mn cm | humidity % | barometer mb |
| 20260508132926 | 18 | 146 | 0.0 | 0.0 | 0.00 | 0.00 | 0.00 | 99 | 1008.0 |
| 20260508132426 | 17 | 38 | 0.0 | 0.0 | 0.00 | 0.00 | 0.00 | 99 | 1008.0 |
| 20260508131926 | 17 | 81 | 0.0 | 1.6 | 0.00 | 0.00 | 0.00 | 99 | 1008.0 |
| 20260508131426 | 17 | 11 | 0.0 | 1.6 | 0.00 | 0.00 | 0.00 | 99 | 1008.0 |
| 20260508130926 | 17 | 224 | 0.0 | 1.6 | 0.00 | 0.00 | 0.00 | 99 | 1008.0 |
| 20260508130426 | 16 | 44 | 0.0 | 4.8 | 0.00 | 0.00 | 0.00 | 99 | 1008.0 |
| 20260508125926 | 16 | 284 | 0.0 | 4.8 | 0.00 | 0.00 | 0.00 | 99 | 1008.0 |
| 20260508125426 | 16 | 90 | 0.0 | 0.0 | 0.00 | 0.00 | 0.00 | 99 | 1008.0 |
| 20260508124926 | 16 | 83 | 0.0 | 0.0 | 0.00 | 0.00 | 0.00 | 99 | 1008.0 |
| 20260508124426 | 16 | 133 | 0.0 | 0.0 | 0.00 | 0.00 | 0.00 | 99 | 1008.0 |
| 20260508123926 | 15 | 79 | 0.0 | 0.0 | 0.00 | 0.00 | 0.00 | 99 | 1008.0 |
| 20260508123426 | 13 | 168 | 0.0 | 0.0 | 0.00 | 0.00 | 0.00 | 99 | 1008.0 |
| 20260508122426 | 10 | 84 | 0.0 | 0.0 | 0.00 | 0.00 | 0.00 | 99 | 1008.0 |
| 20260508121926 | 10 | 50 | 0.0 | 0.0 | 0.00 | 0.00 | 0.00 | 99 | 1008.0 |
| 20260508121426 | 10 | 81 | 0.0 | 11.3 | 0.00 | 0.00 | 0.00 | 99 | 1008.0 |
| 20260508120926 | 10 | 63 | 1.6 | 11.3 | 0.00 | 0.00 | 0.00 | 99 | 1008.0 |
| 20260508120426 | 10 | 183 | 0.0 | 0.0 | 0.00 | 0.00 | 0.00 | 99 | 1008.0 |
| 20260508115926 | 11 | 175 | 0.0 | 0.0 | 0.00 | 0.00 | 0.00 | 99 | 1008.0 |
| 20260508115426 | 11 | 72 | 0.0 | 0.0 | 0.00 | 0.00 | 0.00 | 99 | 1008.0 |
| 20260508114926 | 10 | 4 | 0.0 | 0.0 | 0.00 | 0.00 | 0.00 | 99 | 1008.0 |
| 20260508114426 | 10 | 133 | 0.0 | 0.0 | 0.00 | 0.00 | 0.00 | 99 | 1008.0 |
| 20260508113926 | 11 | 135 | 0.0 | 0.0 | 0.00 | 0.00 | 0.00 | 99 | 1008.0 |
| 20260508113426 | 10 | 116 | 0.0 | 0.0 | 0.00 | 0.00 | 0.00 | 99 | 1008.0 |
| 20260508112926 | 9 | 82 | 0.0 | 0.0 | 0.00 | 0.00 | 0.00 | 99 | 1008.0 |
| 20260508112426 | 8 | 168 | 0.0 | 3.2 | 0.00 | 0.00 | 0.00 | 99 | 1007.2 |
| 20260508111926 | 7 | 93 | 0.0 | 3.2 | 0.00 | 0.00 | 0.00 | 99 | 1008.0 |
| 20260508111426 | 6 | 86 | 0.0 | 1.6 | 0.00 | 0.00 | 0.00 | 99 | 1008.0 |
| 20260508110926 | 6 | 69 | 0.0 | 1.6 | 0.00 | 0.00 | 0.00 | 99 | 1008.0 |
| 20260508110426 | 5 | 85 | 0.0 | 0.0 | 0.00 | 0.00 | 0.00 | 99 | 1008.0 |
| 20260508105926 | 5 | 143 | 0.0 | 0.0 | 0.00 | 0.00 | 0.00 | 99 | 1007.2 |
| 20260508105426 | 5 | 95 | 0.0 | 0.0 | 0.00 | 0.00 | 0.00 | 99 | 1007.2 |
| 20260508104926 | 4 | 84 | 0.0 | 0.0 | 0.00 | 0.00 | 0.00 | 99 | 1007.2 |
| 20260508104426 | 3 | 197 | 0.0 | 0.0 | 0.00 | 0.00 | 0.00 | 99 | 1008.0 |
| 20260508103926 | 3 | 67 | 0.0 | 0.0 | 0.00 | 0.00 | 0.00 | 99 | 1007.2 |
| 20260508103426 | 3 | 74 | 0.0 | 0.0 | 0.00 | 0.00 | 0.00 | 99 | 1008.0 |
| 20260508102926 | 3 | 107 | 0.0 | 0.0 | 0.00 | 0.00 | 0.00 | 99 | 1007.2 |
| 20260508102426 | 3 | 75 | 0.0 | 0.0 | 0.00 | 0.00 | 0.00 | 99 | 1007.2 |
| 20260508101926 | 3 | 106 | 0.0 | 0.0 | 0.00 | 0.00 | 0.00 | 99 | 1008.0 |
| 20260508101426 | 2 | 59 | 0.0 | 0.0 | 0.00 | 0.00 | 0.00 | 99 | 1008.0 |
| 20260508100926 | 2 | 53 | 0.0 | 0.0 | 0.00 | 0.00 | 0.00 | 99 | 1008.0 |
| 20260508100426 | 2 | 67 | 0.0 | 0.0 | 0.00 | 0.00 | 0.00 | 99 | 1008.0 |
| 20260508095926 | 2 | 99 | 0.0 | 0.0 | 0.00 | 0.00 | 0.00 | 99 | 1008.0 |
| 20260508095426 | 2 | 106 | 0.0 | 0.0 | 0.00 | 0.00 | 0.00 | 99 | 1008.0 |
| 20260508094926 | 2 | 113 | 0.0 | 0.0 | 0.00 | 0.00 | 0.00 | 99 | 1007.2 |
| 20260508094426 | 2 | 41 | 0.0 | 0.0 | 0.00 | 0.00 | 0.00 | 99 | 1008.0 |
| 20260508093926 | 2 | 9 | 0.0 | 0.0 | 0.00 | 0.00 | 0.00 | 99 | 1008.0 |
| 20260508093426 | 2 | 45 | 0.0 | 0.0 | 0.00 | 0.00 | 0.00 | 99 | 1007.1 |
| 20260508092926 | 2 | 61 | 0.0 | 0.0 | 0.00 | 0.00 | 0.00 | 99 | 1007.0 |
| 20260508092426 | 2 | 67 | 0.0 | 0.0 | 0.00 | 0.00 | 0.00 | 99 | 1007.0 |
| 20260508091926 | 2 | 67 | 0.0 | 0.0 | 0.00 | 0.00 | 0.00 | 99 | 1007.0 |
| 20260508091426 | 2 | 73 | 0.0 | 0.0 | 0.00 | 0.00 | 0.00 | 99 | 1007.0 |
| 20260508090926 | 2 | 134 | 0.0 | 0.0 | 0.00 | 0.00 | 0.00 | 99 | 1007.0 |
| 20260508090426 | 2 | 144 | 0.0 | 0.0 | 0.00 | 0.00 | 0.00 | 99 | 1007.0 |
| 20260508085926 | 2 | 159 | 0.0 | 0.0 | 0.00 | 0.00 | 0.00 | 99 | 1007.0 |
| 20260508085426 | 2 | 195 | 0.0 | 0.0 | 0.00 | 0.00 | 0.00 | 99 | 1007.0 |
| 20260508084926 | 1 | 247 | 0.0 | 0.0 | 0.00 | 0.00 | 0.00 | 99 | 1007.0 |
| 20260508084426 | 1 | 247 | 0.0 | 0.0 | 0.00 | 0.00 | 0.00 | 99 | 1007.0 |
| 20260508083926 | 1 | 247 | 0.0 | 0.0 | 0.00 | 0.00 | 0.00 | 99 | 1007.0 |
| 20260508083426 | 1 | 247 | 0.0 | 0.0 | 0.00 | 0.00 | 0.00 | 99 | 1007.0 |
| 20260508082925 | 1 | 135 | 0.0 | 0.0 | 0.00 | 0.00 | 0.00 | 99 | 1007.0 |
| 20260508082425 | 1 | 150 | 0.0 | 0.0 | 0.00 | 0.00 | 0.00 | 99 | 1007.0 |
| 20260508081926 | 1 | 180 | 0.0 | 0.0 | 0.00 | 0.00 | 0.00 | 99 | 1007.0 |
| 20260508081425 | 1 | 167 | 0.0 | 0.0 | 0.00 | 0.00 | 0.00 | 99 | 1007.0 |
| 20260508080925 | 1 | 138 | 0.0 | 0.0 | 0.00 | 0.00 | 0.00 | 99 | 1007.0 |
| 20260508080425 | 1 | 81 | 0.0 | 0.0 | 0.00 | 0.00 | 0.00 | 99 | 1007.0 |
| 20260508075925 | 1 | 112 | 0.0 | 0.0 | 0.00 | 0.00 | 0.00 | 99 | 1007.0 |
| 20260508075425 | 1 | 112 | 0.0 | 0.0 | 0.00 | 0.00 | 0.00 | 99 | 1007.0 |
| 20260508074926 | 1 | 102 | 0.0 | 0.0 | 0.00 | 0.00 | 0.00 | 99 | 1007.0 |
| 20260508074425 | 1 | 112 | 0.0 | 0.0 | 0.00 | 0.00 | 0.00 | 99 | 1007.0 |
| 20260508073925 | 1 | 119 | 0.0 | 0.0 | 0.00 | 0.00 | 0.00 | 99 | 1007.0 |
| 20260508073426 | 1 | 135 | 0.0 | 0.0 | 0.00 | 0.00 | 0.00 | 99 | 1007.0 |
| 20260508072925 | 1 | 138 | 0.0 | 0.0 | 0.00 | 0.00 | 0.00 | 99 | 1007.0 |
| 20260508072425 | 1 | 157 | 0.0 | 0.0 | 0.00 | 0.00 | 0.00 | 99 | 1007.0 |
| 20260508071925 | 1 | 172 | 0.0 | 0.0 | 0.00 | 0.00 | 0.00 | 99 | 1007.0 |
| 20260508071425 | 1 | 180 | 0.0 | 0.0 | 0.00 | 0.00 | 0.00 | 99 | 1007.0 |
| 20260508070925 | 1 | 203 | 0.0 | 0.0 | 0.00 | 0.00 | 0.00 | 99 | 1007.0 |
| 20260508070425 | 2 | 225 | 0.0 | 0.0 | 0.00 | 0.00 | 0.00 | 99 | 1007.0 |
| 20260508065925 | 2 | 224 | 0.0 | 0.0 | 0.00 | 0.00 | 0.00 | 99 | 1007.0 |
| 20260508065425 | 2 | 193 | 0.0 | 0.0 | 0.00 | 0.00 | 0.00 | 99 | 1007.0 |
| 20260508064925 | 2 | 190 | 0.0 | 0.0 | 0.00 | 0.00 | 0.00 | 99 | 1007.0 |
| 20260508064426 | 2 | 246 | 0.0 | 0.0 | 0.00 | 0.00 | 0.00 | 99 | 1007.0 |
| 20260508063925 | 1 | 247 | 0.0 | 0.0 | 0.00 | 0.00 | 0.00 | 99 | 1007.0 |
| 20260508063426 | 1 | 233 | 0.0 | 0.0 | 0.00 | 0.00 | 0.00 | 99 | 1007.0 |
| 20260508062925 | 1 | 197 | 0.0 | 0.0 | 0.00 | 0.00 | 0.00 | 99 | 1007.0 |
| 20260508062425 | 1 | 202 | 0.0 | 0.0 | 0.00 | 0.00 | 0.00 | 99 | 1007.0 |
| 20260508061925 | 1 | 179 | 0.0 | 0.0 | 0.00 | 0.00 | 0.00 | 99 | 1007.0 |
| 20260508061425 | 1 | 118 | 0.0 | 0.0 | 0.00 | 0.00 | 0.00 | 99 | 1007.0 |
| 20260508060925 | 1 | 112 | 0.0 | 0.0 | 0.00 | 0.00 | 0.00 | 99 | 1007.0 |
| 20260508060425 | 1 | 125 | 0.0 | 0.0 | 0.00 | 0.00 | 0.00 | 99 | 1007.0 |
| 20260508055925 | 1 | 181 | 0.0 | 0.0 | 0.00 | 0.00 | 0.00 | 99 | 1007.0 |
| 20260508055425 | 1 | 173 | 0.0 | 0.0 | 0.00 | 0.00 | 0.00 | 99 | 1007.0 |
| 20260508054925 | 1 | 119 | 0.0 | 0.0 | 0.00 | 0.00 | 0.00 | 99 | 1007.0 |
| 20260508054425 | 1 | 78 | 0.0 | 0.0 | 0.00 | 0.00 | 0.00 | 99 | 1007.0 |
| 20260508053925 | 1 | 78 | 0.0 | 0.0 | 0.00 | 0.00 | 0.00 | 99 | 1007.0 |
| 20260508053425 | 1 | 104 | 0.0 | 0.0 | 0.00 | 0.00 | 0.00 | 99 | 1007.0 |
| 20260508052925 | 1 | 85 | 0.0 | 0.0 | 0.00 | 0.00 | 0.00 | 99 | 1007.0 |
| 20260508052425 | 1 | 142 | 0.0 | 0.0 | 0.00 | 0.00 | 0.00 | 99 | 1007.0 |
| 20260508051925 | 1 | 172 | 0.0 | 0.0 | 0.00 | 0.00 | 0.00 | 99 | 1006.2 |
| 20260508051425 | 0 | 151 | 0.0 | 0.0 | 0.00 | 0.00 | 0.00 | 99 | 1007.0 |
| 20260508050925 | 0 | 165 | 0.0 | 0.0 | 0.00 | 0.00 | 0.00 | 99 | 1007.0 |
| 20260508050425 | 0 | 146 | 0.0 | 0.0 | 0.00 | 0.00 | 0.00 | 99 | 1007.0 |
| 20260508045925 | 0 | 74 | 0.0 | 0.0 | 0.00 | 0.00 | 0.00 | 99 | 1007.0 |
| 20260508045425 | 0 | 48 | 0.0 | 0.0 | 0.00 | 0.00 | 0.00 | 99 | 1007.0 |
| 20260508044925 | 0 | 73 | 0.0 | 0.0 | 0.00 | 0.00 | 0.00 | 99 | 1007.0 |
| 20260508044425 | 0 | 52 | 0.0 | 0.0 | 0.00 | 0.00 | 0.00 | 99 | 1007.0 |
| 20260508043425 | 0 | 45 | 0.0 | 0.0 | 0.00 | 0.00 | 0.00 | 99 | 1006.2 |
| 20260508042925 | 0 | 93 | 0.0 | 0.0 | 0.00 | 0.00 | 0.00 | 99 | 1007.0 |
| 20260508042425 | 0 | 111 | 0.0 | 0.0 | 0.00 | 0.00 | 0.00 | 99 | 1007.0 |
| 20260508041925 | 0 | 57 | 0.0 | 0.0 | 0.00 | 0.00 | 0.00 | 99 | 1007.0 |
| 20260508041425 | 0 | 45 | 0.0 | 0.0 | 0.00 | 0.00 | 0.00 | 99 | 1007.0 |
| 20260508040925 | 0 | 45 | 0.0 | 0.0 | 0.00 | 0.00 | 0.00 | 99 | 1007.0 |
| 20260508040425 | 0 | 51 | 0.0 | 0.0 | 0.00 | 0.00 | 0.00 | 99 | 1007.0 |
| 20260508035925 | 1 | 79 | 0.0 | 0.0 | 0.00 | 0.00 | 0.00 | 99 | 1007.0 |
| 20260508035425 | 0 | 55 | 0.0 | 0.0 | 0.00 | 0.00 | 0.00 | 99 | 1007.0 |
| 20260508034925 | 0 | 117 | 0.0 | 0.0 | 0.00 | 0.00 | 0.00 | 99 | 1007.0 |
| 20260508034425 | 0 | 111 | 0.0 | 0.0 | 0.00 | 0.00 | 0.00 | 99 | 1007.0 |
| 20260508033925 | 1 | 112 | 0.0 | 0.0 | 0.00 | 0.00 | 0.00 | 99 | 1007.0 |
| 20260508033425 | 1 | 127 | 0.0 | 0.0 | 0.00 | 0.00 | 0.00 | 99 | 1007.0 |
| 20260508032925 | 1 | 94 | 0.0 | 0.0 | 0.00 | 0.00 | 0.00 | 99 | 1007.0 |
| 20260508032425 | 1 | 90 | 0.0 | 0.0 | 0.00 | 0.00 | 0.00 | 99 | 1007.0 |
| 20260508031925 | 1 | 90 | 0.0 | 0.0 | 0.00 | 0.00 | 0.00 | 99 | 1007.0 |
| 20260508031425 | 1 | 96 | 0.0 | 0.0 | 0.00 | 0.00 | 0.00 | 99 | 1007.0 |
| 20260508030925 | 1 | 135 | 0.0 | 0.0 | 0.00 | 0.00 | 0.00 | 99 | 1007.0 |
| 20260508030425 | 1 | 125 | 0.0 | 0.0 | 0.00 | 0.00 | 0.00 | 99 | 1007.0 |
| 20260508025925 | 1 | 112 | 0.0 | 0.0 | 0.00 | 0.00 | 0.00 | 99 | 1007.0 |
| 20260508025425 | 1 | 128 | 0.0 | 0.0 | 0.00 | 0.00 | 0.00 | 99 | 1007.0 |
| 20260508024925 | 1 | 148 | 0.0 | 0.0 | 0.00 | 0.00 | 0.00 | 99 | 1007.0 |
| 20260508024425 | 1 | 115 | 0.0 | 0.0 | 0.00 | 0.00 | 0.00 | 99 | 1007.0 |
| 20260508023925 | 1 | 135 | 0.0 | 0.0 | 0.00 | 0.00 | 0.00 | 99 | 1007.0 |
| 20260508023425 | 2 | 135 | 0.0 | 0.0 | 0.00 | 0.00 | 0.00 | 99 | 1007.0 |
| 20260508022925 | 2 | 135 | 0.0 | 0.0 | 0.00 | 0.00 | 0.00 | 99 | 1007.0 |
| 20260508022425 | 2 | 135 | 0.0 | 0.0 | 0.00 | 0.00 | 0.00 | 99 | 1007.0 |
| 20260508021925 | 2 | 135 | 0.0 | 0.0 | 0.00 | 0.00 | 0.00 | 99 | 1007.0 |
| 20260508021425 | 2 | 135 | 0.0 | 0.0 | 0.00 | 0.00 | 0.00 | 99 | 1007.0 |
| 20260508020925 | 2 | 135 | 0.0 | 0.0 | 0.00 | 0.00 | 0.00 | 99 | 1007.0 |
| 20260508020425 | 2 | 135 | 0.0 | 0.0 | 0.00 | 0.00 | 0.00 | 99 | 1007.0 |
| 20260508015925 | 2 | 147 | 0.0 | 0.0 | 0.00 | 0.00 | 0.00 | 99 | 1007.0 |
| 20260508015425 | 2 | 157 | 0.0 | 0.0 | 0.00 | 0.00 | 0.00 | 99 | 1007.0 |
| 20260508014925 | 2 | 135 | 0.0 | 0.0 | 0.00 | 0.00 | 0.00 | 99 | 1007.0 |
| 20260508014425 | 2 | 135 | 0.0 | 0.0 | 0.00 | 0.00 | 0.00 | 99 | 1007.0 |
| 20260508013925 | 3 | 135 | 0.0 | 0.0 | 0.00 | 0.00 | 0.00 | 99 | 1007.0 |
| 20260508013425 | 3 | 135 | 0.0 | 0.0 | 0.00 | 0.00 | 0.00 | 99 | 1007.0 |
| 20260508012925 | 3 | 135 | 0.0 | 0.0 | 0.00 | 0.00 | 0.00 | 99 | 1007.0 |
| 20260508012425 | 3 | 135 | 0.0 | 0.0 | 0.00 | 0.00 | 0.00 | 99 | 1007.0 |
| 20260508011925 | 3 | 135 | 0.0 | 0.0 | 0.00 | 0.00 | 0.00 | 99 | 1006.2 |
| 20260508011425 | 4 | 135 | 0.0 | 0.0 | 0.00 | 0.00 | 0.00 | 99 | 1006.2 |
| 20260508010925 | 5 | 135 | 0.0 | 0.0 | 0.00 | 0.00 | 0.00 | 99 | 1007.0 |
| 20260508010425 | 5 | 153 | 0.0 | 0.0 | 0.00 | 0.00 | 0.00 | 99 | 1006.2 |
| 20260508005925 | 5 | 157 | 0.0 | 0.0 | 0.00 | 0.00 | 0.00 | 99 | 1007.0 |
| 20260508005425 | 5 | 135 | 0.0 | 0.0 | 0.00 | 0.00 | 0.00 | 99 | 1007.0 |
| 20260508004925 | 6 | 153 | 0.0 | 0.0 | 0.00 | 0.00 | 0.00 | 99 | 1007.0 |
| 20260508004425 | 6 | 130 | 0.0 | 0.0 | 0.00 | 0.00 | 0.00 | 99 | 1007.0 |
| 20260508003925 | 6 | 117 | 0.0 | 0.0 | 0.00 | 0.00 | 0.00 | 99 | 1006.1 |
| 20260508003425 | 7 | 180 | 0.0 | 0.0 | 0.00 | 0.00 | 0.00 | 99 | 1006.0 |
| 20260508002925 | 7 | 201 | 0.0 | 0.0 | 0.00 | 0.00 | 0.00 | 99 | 1006.0 |
| 20260508002425 | 7 | 174 | 0.0 | 0.0 | 0.00 | 0.00 | 0.00 | 99 | 1006.0 |
| 20260508001925 | 7 | 159 | 0.0 | 0.0 | 0.00 | 0.00 | 0.00 | 99 | 1006.0 |
| 20260508001425 | 8 | 145 | 0.0 | 0.0 | 0.00 | 0.00 | 0.00 | 99 | 1006.0 |
| 20260508000925 | 8 | 147 | 0.0 | 0.0 | 0.00 | 0.00 | 0.00 | 99 | 1006.0 |
| 20260508000427 | 9 | 125 | 0.0 | 0.0 | 0.00 | 0.00 | 0.00 | 99 | 1006.0 |
| 20260507235925 | 10 | 110 | 0.0 | 0.0 | 0.00 | 0.00 | 0.00 | 99 | 1006.0 |
| 20260507234925 | 11 | 127 | 0.0 | 0.0 | 0.00 | 0.00 | 0.00 | 99 | 1006.0 |
| 20260507234425 | 11 | 116 | 0.0 | 0.0 | 0.00 | 0.00 | 0.00 | 99 | 1006.0 |
| 20260507233925 | 12 | 52 | 0.0 | 0.0 | 0.00 | 0.00 | 0.00 | 99 | 1006.0 |
| 20260507233425 | 12 | 121 | 0.0 | 0.0 | 0.00 | 0.00 | 0.00 | 99 | 1006.0 |
| 20260507232925 | 12 | 81 | 0.0 | 0.0 | 0.00 | 0.00 | 0.00 | 99 | 1006.0 |
| 20260507232425 | 12 | 137 | 0.0 | 0.0 | 0.00 | 0.00 | 0.00 | 99 | 1006.0 |
| 20260507231925 | 12 | 79 | 0.0 | 0.0 | 0.00 | 0.00 | 0.00 | 99 | 1005.2 |
| 20260507231425 | 13 | 54 | 0.0 | 0.0 | 0.00 | 0.00 | 0.00 | 99 | 1005.2 |
| 20260507230925 | 13 | 96 | 0.0 | 0.0 | 0.00 | 0.00 | 0.00 | 99 | 1006.0 |
| 20260507230425 | 13 | 45 | 0.0 | 0.0 | 0.00 | 0.00 | 0.00 | 99 | 1005.2 |
| 20260507225925 | 15 | 285 | 0.0 | 1.6 | 0.00 | 0.00 | 0.00 | 99 | 1006.0 |
| 20260507224925 | 16 | 11 | 0.0 | 3.2 | 0.00 | 0.00 | 0.00 | 99 | 1005.2 |
| 20260507224425 | 15 | 74 | 0.0 | 3.2 | 0.00 | 0.00 | 0.00 | 99 | 1005.2 |
| 20260507223925 | 14 | 88 | 0.0 | 0.0 | 0.00 | 0.00 | 0.00 | 99 | 1006.0 |
| 20260507223425 | 14 | 44 | 0.0 | 3.2 | 0.00 | 0.00 | 0.00 | 99 | 1005.2 |
| 20260507222925 | 15 | 41 | 0.0 | 3.2 | 0.00 | 0.00 | 0.00 | 99 | 1006.0 |
| 20260507222425 | 16 | 71 | 0.0 | 0.0 | 0.00 | 0.00 | 0.00 | 99 | 1005.2 |
| 20260507221925 | 16 | 145 | 0.0 | 0.0 | 0.00 | 0.00 | 0.00 | 99 | 1006.0 |
| 20260507221425 | 17 | 85 | 0.0 | 0.0 | 0.00 | 0.00 | 0.00 | 99 | 1005.2 |
| 20260507220925 | 20 | 79 | 0.0 | 0.0 | 0.00 | 0.00 | 0.00 | 99 | 1005.2 |
| 20260507220425 | 20 | 136 | 0.0 | 0.0 | 0.00 | 0.00 | 0.00 | 99 | 1005.2 |
| 20260507215925 | 18 | 45 | 0.0 | 0.0 | 0.00 | 0.00 | 0.00 | 99 | 1006.0 |
| 20260507215425 | 18 | 73 | 0.0 | 0.0 | 0.00 | 0.00 | 0.00 | 99 | 1005.2 |
| 20260507214925 | 18 | 182 | 0.0 | 0.0 | 0.00 | 0.00 | 0.00 | 99 | 1005.2 |
| 20260507214425 | 17 | 87 | 0.0 | 4.8 | 0.00 | 0.00 | 0.00 | 99 | 1005.2 |
| 20260507213925 | 17 | 14 | 0.0 | 4.8 | 0.00 | 0.00 | 0.00 | 99 | 1005.2 |
| 20260507213425 | 17 | 90 | 0.0 | 0.0 | 0.00 | 0.00 | 0.00 | 99 | 1005.2 |
| 20260507212925 | 18 | 84 | 0.0 | 0.0 | 0.00 | 0.00 | 0.00 | 99 | 1005.2 |
| 20260507212425 | 18 | 90 | 0.0 | 4.8 | 0.00 | 0.00 | 0.00 | 99 | 1005.2 |
| 20260507211925 | 20 | 12 | 0.0 | 4.8 | 0.00 | 0.00 | 0.00 | 99 | 1006.0 |
| 20260507211425 | 20 | 93 | 0.0 | 4.8 | 0.00 | 0.00 | 0.00 | 99 | 1005.2 |
| 20260507210425 | 19 | 43 | 0.0 | 6.4 | 0.00 | 0.00 | 0.00 | 99 | 1005.2 |
| 20260507205925 | 21 | 41 | 0.0 | 12.9 | 0.00 | 0.00 | 0.00 | 99 | 1006.0 |
| 20260507205425 | 21 | 75 | 0.0 | 12.9 | 0.00 | 0.00 | 0.00 | 99 | 1005.2 |
| 20260507204925 | 18 | 31 | 0.0 | 1.6 | 0.00 | 0.00 | 0.00 | 99 | 1005.2 |
| 20260507204425 | 17 | 43 | 0.0 | 6.4 | 0.00 | 0.00 | 0.00 | 99 | 1005.2 |
| 20260507203925 | 17 | 47 | 0.0 | 6.4 | 0.00 | 0.00 | 0.00 | 99 | 1006.0 |
| 20260507203425 | 17 | 3 | 0.0 | 0.0 | 0.00 | 0.00 | 0.00 | 99 | 1006.0 |
| 20260507202925 | 18 | 79 | 0.0 | 6.4 | 0.00 | 0.00 | 0.00 | 99 | 1006.0 |
| 20260507202425 | 18 | 90 | 0.0 | 6.4 | 0.00 | 0.00 | 0.00 | 99 | 1005.2 |
| 20260507201925 | 17 | 79 | 1.6 | 4.8 | 0.00 | 0.00 | 0.00 | 99 | 1006.0 |
| 20260507201425 | 18 | 52 | 0.0 | 4.8 | 0.00 | 0.00 | 0.00 | 99 | 1005.2 |
| 20260507200925 | 18 | 85 | 0.0 | 4.8 | 0.00 | 0.00 | 0.00 | 99 | 1006.0 |
| 20260507200425 | 17 | 85 | 0.0 | 4.8 | 0.00 | 0.00 | 0.00 | 99 | 1006.0 |
| 20260507195925 | 17 | 43 | 0.0 | 1.6 | 0.00 | 0.00 | 0.00 | 99 | 1006.0 |
| 20260507195425 | 18 | 5 | 0.0 | 0.0 | 0.00 | 0.00 | 0.00 | 99 | 1006.0 |
| 20260507194925 | 18 | 92 | 0.0 | 0.0 | 0.00 | 0.00 | 0.00 | 99 | 1006.0 |
| 20260507194425 | 20 | 50 | 0.0 | 4.8 | 0.00 | 0.00 | 0.00 | 99 | 1006.0 |
| 20260507193925 | 19 | 41 | 0.0 | 4.8 | 0.00 | 0.00 | 0.00 | 99 | 1006.0 |
| 20260507193425 | 17 | 39 | 0.0 | 3.2 | 0.00 | 0.00 | 0.00 | 99 | 1006.0 |
| 20260507192925 | 17 | 47 | 0.0 | 3.2 | 0.00 | 0.00 | 0.00 | 99 | 1006.0 |
| 20260507192425 | 17 | 48 | 0.0 | 3.2 | 0.00 | 0.00 | 0.00 | 99 | 1006.0 |
| 20260507191925 | 17 | 45 | 0.0 | 1.6 | 0.00 | 0.00 | 0.00 | 99 | 1006.0 |
| 20260507191425 | 17 | 92 | 0.0 | 3.2 | 0.00 | 0.00 | 0.00 | 99 | 1006.0 |
| 20260507190925 | 17 | 55 | 0.0 | 3.2 | 0.00 | 0.00 | 0.00 | 99 | 1006.0 |
| 20260507190425 | 17 | 45 | 0.0 | 0.0 | 0.00 | 0.00 | 0.00 | 99 | 1006.0 |
| 20260507185924 | 18 | 86 | 0.0 | 0.0 | 0.00 | 0.00 | 0.00 | 99 | 1006.0 |
| 20260507185425 | 17 | 4 | 0.0 | 0.0 | 0.00 | 0.00 | 0.00 | 99 | 1006.0 |
| 20260507184925 | 17 | 50 | 0.0 | 1.6 | 0.00 | 0.00 | 0.00 | 99 | 1006.1 |
| 20260507184425 | 17 | 84 | 0.0 | 1.6 | 0.00 | 0.00 | 0.00 | 99 | 1006.1 |
| 20260507183924 | 17 | 91 | 0.0 | 0.0 | 0.00 | 0.00 | 0.00 | 99 | 1006.1 |
| 20260507183425 | 18 | 83 | 0.0 | 1.6 | 0.00 | 0.00 | 0.00 | 99 | 1006.2 |
| 20260507182924 | 20 | 81 | 0.0 | 1.6 | 0.00 | 0.00 | 0.00 | 99 | 1006.2 |
| 20260507182425 | 20 | 72 | 0.0 | 0.0 | 0.00 | 0.00 | 0.00 | 99 | 1006.2 |
| 20260507181924 | 18 | 103 | 0.0 | 0.0 | 0.00 | 0.00 | 0.00 | 99 | 1006.2 |
| 20260507181424 | 17 | 95 | 0.0 | 0.0 | 0.00 | 0.00 | 0.00 | 99 | 1006.2 |
| 20260507180924 | 17 | 40 | 0.0 | 9.7 | 0.00 | 0.00 | 0.00 | 99 | 1007.0 |
| 20260507180424 | 17 | 82 | 0.0 | 9.7 | 0.00 | 0.00 | 0.00 | 99 | 1006.2 |
| 20260507175924 | 18 | 6 | 0.0 | 0.0 | 0.00 | 0.00 | 0.00 | 99 | 1007.0 |
| 20260507175424 | 18 | 8 | 0.0 | 1.6 | 0.00 | 0.00 | 0.00 | 99 | 1006.2 |
| 20260507174924 | 20 | 86 | 0.0 | 1.6 | 0.00 | 0.00 | 0.00 | 99 | 1007.0 |
| 20260507174424 | 21 | 37 | 0.0 | 0.0 | 0.00 | 0.00 | 0.00 | 99 | 1007.0 |
| 20260507173924 | 21 | 93 | 0.0 | 1.6 | 0.00 | 0.00 | 0.00 | 99 | 1006.2 |
| 20260507173425 | 21 | 78 | 0.0 | 3.2 | 0.00 | 0.00 | 0.00 | 99 | 1007.0 |
| 20260507172924 | 21 | 41 | 0.0 | 3.2 | 0.00 | 0.00 | 0.00 | 99 | 1007.0 |
| 20260507172424 | 21 | 84 | 0.0 | 0.0 | 0.00 | 0.00 | 0.00 | 99 | 1007.0 |
| 20260507171924 | 19 | 133 | 0.0 | 0.0 | 0.00 | 0.00 | 0.00 | 99 | 1006.2 |
| 20260507171424 | 19 | 142 | 0.0 | 4.8 | 0.00 | 0.00 | 0.00 | 99 | 1007.0 |
| 20260507170924 | 18 | 92 | 0.0 | 4.8 | 0.00 | 0.00 | 0.00 | 99 | 1007.0 |
| 20260507170424 | 19 | 39 | 0.0 | 4.8 | 0.00 | 0.00 | 0.00 | 99 | 1007.0 |
| 20260507165924 | 21 | 6 | 1.6 | 6.4 | 0.00 | 0.00 | 0.00 | 99 | 1007.0 |
| 20260507165424 | 21 | 77 | 0.0 | 6.4 | 0.00 | 0.00 | 0.00 | 99 | 1007.0 |
| 20260507164924 | 21 | 51 | 0.0 | 1.6 | 0.00 | 0.00 | 0.00 | 99 | 1006.2 |
| 20260507164424 | 21 | 49 | 0.0 | 3.2 | 0.00 | 0.00 | 0.00 | 99 | 1007.0 |
| 20260507163924 | 21 | 309 | 0.0 | 4.8 | 0.00 | 0.00 | 0.00 | 99 | 1007.0 |
| 20260507163425 | 20 | 49 | 0.0 | 4.8 | 0.00 | 0.00 | 0.00 | 99 | 1007.0 |
| 20260507162924 | 19 | 77 | 0.0 | 4.8 | 0.00 | 0.00 | 0.00 | 99 | 1007.0 |
| 20260507162424 | 19 | 10 | 0.0 | 3.2 | 0.00 | 0.00 | 0.00 | 99 | 1006.2 |
| 20260507161924 | 20 | 137 | 0.0 | 3.2 | 0.00 | 0.00 | 0.00 | 99 | 1007.0 |
| 20260507161424 | 19 | 83 | 0.0 | 3.2 | 0.00 | 0.00 | 0.00 | 99 | 1006.2 |
| 20260507160924 | 18 | 13 | 0.0 | 3.2 | 0.00 | 0.00 | 0.00 | 99 | 1007.0 |
| 20260507160424 | 18 | 86 | 0.0 | 0.0 | 0.00 | 0.00 | 0.00 | 99 | 1007.0 |
| 20260507155924 | 19 | 97 | 0.0 | 0.0 | 0.00 | 0.00 | 0.00 | 99 | 1007.0 |
| 20260507155424 | 20 | 358 | 0.0 | 0.0 | 0.00 | 0.00 | 0.00 | 99 | 1007.0 |
| 20260507154924 | 20 | 83 | 0.0 | 0.0 | 0.00 | 0.00 | 0.00 | 99 | 1007.0 |
| 20260507154424 | 20 | 44 | 0.0 | 0.0 | 0.00 | 0.00 | 0.00 | 99 | 1007.0 |
| 20260507153924 | 20 | 86 | 0.0 | 0.0 | 0.00 | 0.00 | 0.00 | 99 | 1007.0 |
| 20260507153424 | 19 | 1 | 0.0 | 0.0 | 0.00 | 0.00 | 0.00 | 99 | 1007.0 |
| 20260507152924 | 19 | 143 | 0.0 | 6.4 | 0.00 | 0.00 | 0.00 | 99 | 1007.0 |
| 20260507152424 | 19 | 42 | 0.0 | 6.4 | 0.00 | 0.00 | 0.00 | 99 | 1007.0 |
| 20260507151924 | 20 | 50 | 0.0 | 0.0 | 0.00 | 0.00 | 0.00 | 99 | 1007.1 |
| 20260507151424 | 19 | 83 | 0.0 | 0.0 | 0.00 | 0.00 | 0.00 | 99 | 1007.1 |
| 20260507150924 | 19 | 269 | 0.0 | 0.0 | 0.00 | 0.00 | 0.00 | 99 | 1007.0 |
| 20260507150424 | 20 | 90 | 0.0 | 0.0 | 0.00 | 0.00 | 0.00 | 99 | 1007.2 |
| 20260507145924 | 19 | 93 | 0.0 | 0.0 | 0.00 | 0.00 | 0.00 | 99 | 1007.2 |
| 20260507145424 | 18 | 2 | 0.0 | 0.0 | 0.00 | 0.00 | 0.00 | 99 | 1008.0 |
| 20260507144924 | 18 | 130 | 0.0 | 0.0 | 0.00 | 0.00 | 0.00 | 99 | 1007.2 |
| 20260507144424 | 18 | 127 | 0.0 | 0.0 | 0.00 | 0.00 | 0.00 | 99 | 1008.0 |
| 20260507143924 | 17 | 91 | 0.0 | 0.0 | 0.00 | 0.00 | 0.00 | 99 | 1007.2 |
| 20260507143424 | 17 | 136 | 0.0 | 0.0 | 0.00 | 0.00 | 0.00 | 99 | 1007.2 |
| 20260507142924 | 17 | 15 | 0.0 | 8.0 | 0.00 | 0.00 | 0.00 | 99 | 1007.2 |
| 20260507142424 | 17 | 37 | 0.0 | 8.0 | 0.00 | 0.00 | 0.00 | 99 | 1008.0 |
| 20260507141924 | 17 | 49 | 0.0 | 4.8 | 0.00 | 0.00 | 0.00 | 99 | 1007.2 |
| 20260507141424 | 17 | 132 | 0.0 | 4.8 | 0.00 | 0.00 | 0.00 | 99 | 1008.0 |
| 20260507140924 | 17 | 93 | 0.0 | 0.0 | 0.00 | 0.00 | 0.00 | 99 | 1007.2 |
| 20260507140424 | 17 | 130 | 0.0 | 0.0 | 0.00 | 0.00 | 0.00 | 99 | 1008.0 |
| 20260507135924 | 17 | 103 | 0.0 | 0.0 | 0.00 | 0.00 | 0.00 | 99 | 1007.2 |
| 20260507135424 | 16 | 82 | 0.0 | 3.2 | 0.00 | 0.00 | 0.00 | 99 | 1008.0 |
| 20260507134924 | 17 | 38 | 0.0 | 3.2 | 0.00 | 0.00 | 0.00 | 99 | 1007.2 |
| 20260507134424 | 16 | 54 | 0.0 | 0.0 | 0.00 | 0.00 | 0.00 | 99 | 1008.0 |
| 20260507133924 | 16 | 18 | 0.0 | 0.0 | 0.00 | 0.00 | 0.00 | 99 | 1007.2 |
| 20260507133424 | 16 | 19 | 0.0 | 1.6 | 0.00 | 0.00 | 0.00 | 99 | 1007.2 |